Regional Weather Roundup
Issued by NWS

Home | Current Version | Previous Version | Graphics & Text | Print | Product List | Glossary On
Versions: 1 2 3 4 5 6 7 8 9 10 11 12 13 14 15 16 17 18 19 20 21 22 23 24 25 26
000
ASUS45 KPSR 271410
RWRAZ

ARIZONA HOURLY REGIONAL WEATHER ROUNDUP
NATIONAL WEATHER SERVICE PHOENIX AZ
700 AM MST THU JUL 27 2017

NOTE: FAIR INDICATES FEW OR NO CLOUDS BELOW 12,000 FEET WITH NO
SIGNIFICANT WEATHER AND/OR OBSTRUCTIONS TO VISIBILITY.

AZZ001>003-036-271500-
NORTHWEST ARIZONA

CITY           SKY/WX    TMP DP  RH WIND       PRES   REMARKS
KINGMAN        SUNNY     75  64  68 CALM      30.10R
$$

AZZ004>008-015-016-018-271500-
NORTH CENTRAL ARIZONA

CITY           SKY/WX    TMP DP  RH WIND       PRES   REMARKS
GRAND CANYON   SUNNY     62  56  80 CALM      30.35R
WILLIAMS       SUNNY     63  57  82 SE3       30.36R
PRESCOTT       SUNNY     69  57  65 S5        30.22S
FLAGSTAFF      CLOUDY    59  57  93 CALM      30.36S
PAYSON         PTSUNNY   68  59  73 CALM      30.24R
PAGE           SUNNY     79  58  48 CALM      30.15R
$$

AZZ009>014-017-271500-
NORTHEAST ARIZONA

CITY           SKY/WX    TMP DP  RH WIND       PRES   REMARKS
WINSLOW        PTSUNNY   73  59  61 W5        30.20R
SAINT JOHNS    SUNNY     70  59  68 SE5       30.25R
WINDOW ROCK    SUNNY     63  54  72 CALM      30.34R
SHOW LOW       MOSUNNY   66  55  68 CALM      30.31S
$$

AZZ540-542>544-546-548-271500-
GREATER PHOENIX AREA

CITY           SKY/WX    TMP DP  RH WIND       PRES   REMARKS
PHOENIX        MOSUNNY   90  57  32 NW6       29.88S
BUCKEYE        SUNNY     86  63  45 W6        29.90S
GLENDALE       MOSUNNY   90  57  33 CALM      29.90S
LUKE AFB       MOSUNNY   88  59  38 S5        29.88S
DEER VALLEY    MOSUNNY   86  61  42 CALM      29.91R
SCOTTSDALE     MOSUNNY   89  58  34 CALM      29.93R
MESA-FALCON    MOSUNNY   88  70  55 N6        29.92S
MESA-GATEWAY   MOSUNNY   84  68  58 E5        29.92S
CHANDLER       SUNNY     88  63  42 CALM      29.90S
$$

AZZ539-553-271500-
SOUTHWEST MARICOPA COUNTY AND PINAL COUNTY

CITY           SKY/WX    TMP DP  RH WIND       PRES   REMARKS
CASA GRANDE    SUNNY     87  63  44 CALM      29.93S
GILA BEND      MOSUNNY   87  63  44 CALM      29.88S
$$

AZZ503-504-507>509-271500-
SOUTHEAST ARIZONA

CITY           SKY/WX    TMP DP  RH WIND       PRES   REMARKS
TUCSON         MOSUNNY   78  69  73 S3        30.04R
DAVIS-MONTHAN  PTSUNNY   76  68  76 SE5       30.03R
RYAN FIELD     SUNNY     79  70  73 SE6       30.02S
NOGALES        MOSUNNY   71  68  90 E5        30.12S
SIERRA VISTA   PTSUNNY   71  62  73 W6        30.18S
DOUGLAS        CLOUDY    71  66  84 CALM      30.13S
SAFFORD        MOSUNNY   79  66  64 CALM      30.03F
$$

AZZ532-271500-
SOUTHWEST ARIZONA

CITY           SKY/WX    TMP DP  RH WIND       PRES   REMARKS
YUMA           MOSUNNY   87  56  34 N3        29.84S
$$

CAZ041-043-047-048-061-525>527-560>570-271500-
SOUTHERN CALIFORNIA

CITY           SKY/WX    TMP DP  RH WIND       PRES   REMARKS
DOWNTOWN L.A.  SUNNY     68  63  84 CALM      29.96
L.A. AIRPORT   MOSUNNY   67  64  90 SW6       29.97S
SAN DIEGO      CLOUDY    71  64  78 W3        29.97S
BURBANK        SUNNY     67  60  78 CALM      29.97S
ONTARIO        MOSUNNY   70  62  76 CALM      29.98S
RIVERSIDE      SUNNY     68  64  87 CALM      29.98S
PALM SPRINGS   SUNNY     87  63  44 CALM      29.88R
EL CENTRO NAS  MOSUNNY   83  50  31 S7        29.85R
IMPERIAL       SUNNY     86  50  28 S6        29.82R
BLYTHE         SUNNY     86  51  29 N3        29.86R
NEEDLES        SUNNY     91  55  29 NW5       29.90R
$$

NVZ020-UTZ003-271500-
SOUTHERN NEVADA-UTAH

CITY           SKY/WX    TMP DP  RH WIND       PRES   REMARKS
LAS VEGAS      MOSUNNY   87  62  43 N3        30.00R
SALT LAKE CITY MOSUNNY   70  59  68 SE3       30.18S
$$

NMZ009-TXZ055-271500-
NEW MEXICO-WEST TEXAS

CITY           SKY/WX    TMP DP  RH WIND       PRES   REMARKS
ALBUQUERQUE    PTSUNNY   71  62  73 E7        30.24R
EL PASO        PTSUNNY   76  66  71 S6        30.10S
$$


........................KEY........................
SKY/WX - SKY CONDITION/WEATHER
TMP    - TEMPERATURE IN FAHRENHEIT
DP     - DEW POINT IN FAHRENHEIT
RH     - RELATIVE HUMIDITY IN PERCENT
WIND   - DIRECTION AND SPEED IN MILES PER HOUR (MPH)
VRB    - VARIABLE WIND DIRECTION
PRES   - MEAN SEA LEVEL PRESSURE IN INCHES OF MERCURY
         F - FALLING PRESSURE   R - RISING PRESSURE
         S - STEADY PRESSURE
VSB    - VISIBILITY IN MILES
HX     - HEAT INDEX IN FAHRENHEIT
WCI    - WIND CHILL INDEX IN FAHRENHEIT
TC     - TEMPERATURE IN CELSIUS WHICH IS ALSO KNOWN AS
         TEMPERATURE IN CENTIGRADE
AFB    - AIR FORCE BASE
         LUKE AFB IS LUKE AIR FORCE BASE
         DAVIS-MONTHAN IS DAVIS-MONTHAN AIR FORCE BASE
NAS    - NAVAL AIR STATION
         EL CENTRO NAS IS EL CENTRO NAVAL AIR STATION
N/A    - NOT AVAILABLE





USA.gov is the U.S. government's official web portal to all federal, state and local government web resources and services.